| time (UTC) | temp F | wind direction | speed knots | gust knots | rain 1hr in | rain 24hr in | rain mn in | humidity % | barometer mb |
| 20260504050004 | 60 | 1 | 4.3 | 13.9 | 0.00 | 0.03 | 0.00 | 69 | 1010.8 |
| 20260504045404 | 60 | 360 | 4.3 | 12.2 | 0.00 | 0.05 | 0.00 | 68 | 1010.5 |
| 20260504044504 | 60 | 360 | 4.3 | 13.0 | 0.00 | 0.05 | 0.00 | 67 | 1010.7 |
| 20260504043603 | 60 | 359 | 4.3 | 11.3 | 0.00 | 0.05 | 0.00 | 67 | 1010.6 |
| 20260504042703 | 60 | 3 | 4.3 | 13.9 | 0.00 | 0.05 | 0.00 | 67 | 1010.8 |
| 20260504041804 | 61 | 360 | 4.3 | 13.0 | 0.00 | 0.05 | 0.00 | 65 | 1010.5 |
| 20260504040903 | 60 | 352 | 4.3 | 13.9 | 0.00 | 0.05 | 0.00 | 66 | 1010.8 |
| 20260504040004 | 60 | 11 | 4.3 | 13.9 | 0.00 | 0.05 | 0.00 | 66 | 1010.7 |
| 20260504035404 | 60 | 3 | 4.3 | 12.2 | 0.00 | 0.05 | 0.00 | 66 | 1010.7 |
| 20260504034524 | 60 | 356 | 4.3 | 13.0 | 0.00 | 0.05 | 0.00 | 66 | 1010.9 |
| 20260504033604 | 60 | 2 | 5.2 | 15.6 | 0.00 | 0.05 | 0.00 | 67 | 1010.8 |
| 20260504032703 | 62 | 350 | 6.1 | 14.8 | 0.00 | 0.07 | 0.00 | 64 | 1010.9 |
| 20260504031804 | 62 | 356 | 5.2 | 16.5 | 0.00 | 0.08 | 0.00 | 62 | 1010.7 |
| 20260504030924 | 63 | 357 | 5.2 | 18.2 | 0.00 | 0.10 | 0.00 | 62 | 1010.7 |
| 20260504030004 | 63 | 360 | 5.2 | 13.9 | 0.00 | 0.10 | 0.00 | 62 | 1011.0 |
| 20260504025403 | 62 | 355 | 6.1 | 14.8 | 0.00 | 0.10 | 0.00 | 65 | 1010.8 |
| 20260504024503 | 63 | 350 | 4.3 | 13.0 | 0.00 | 0.10 | 0.00 | 62 | 1011.0 |
| 20260504023604 | 61 | 2 | 5.2 | 12.2 | 0.00 | 0.11 | 0.00 | 67 | 1011.0 |
| 20260504022703 | 61 | 359 | 4.3 | 12.2 | 0.00 | 0.11 | 0.00 | 67 | 1011.3 |
| 20260504021803 | 59 | 358 | 4.3 | 9.6 | 0.00 | 0.12 | 0.00 | 74 | 1011.4 |
| 20260504020903 | 59 | 360 | 5.2 | 11.3 | 0.00 | 0.12 | 0.00 | 73 | 1011.3 |
| 20260504020004 | 60 | 351 | 4.3 | 13.9 | 0.00 | 0.13 | 0.00 | 72 | 1011.5 |
| 20260504015403 | 59 | 358 | 4.3 | 13.9 | 0.00 | 0.16 | 0.00 | 73 | 1011.6 |
| 20260504014503 | 59 | 1 | 4.3 | 13.9 | 0.00 | 0.19 | 0.00 | 74 | 1011.6 |
| 20260504013603 | 60 | 353 | 5.2 | 14.8 | 0.00 | 0.21 | 0.00 | 75 | 1011.4 |
| 20260504012703 | 59 | 356 | 5.2 | 14.8 | 0.00 | 0.26 | 0.00 | 75 | 1011.8 |
| 20260504011824 | 60 | 360 | 5.2 | 12.2 | 0.00 | 0.32 | 0.00 | 73 | 1011.9 |
| 20260504010903 | 60 | 9 | 4.3 | 13.9 | 0.00 | 0.37 | 0.00 | 73 | 1011.9 |
| 20260504010003 | 61 | 352 | 5.2 | 13.0 | 0.00 | 0.37 | 0.00 | 72 | 1012.0 |
| 20260504005403 | 59 | 1 | 6.1 | 18.2 | 0.00 | 0.37 | 0.00 | 76 | 1012.0 |
| 20260504004503 | 61 | 2 | 4.3 | 13.0 | 0.00 | 0.37 | 0.00 | 73 | 1012.0 |
| 20260504003603 | 60 | 359 | 4.3 | 11.3 | 0.00 | 0.37 | 0.00 | 75 | 1012.0 |
| 20260504002703 | 60 | 354 | 4.3 | 12.2 | 0.00 | 0.41 | 0.00 | 75 | 1012.0 |
| 20260504001804 | 59 | 357 | 4.3 | 13.0 | 0.00 | 0.45 | 0.00 | 76 | 1011.5 |
| 20260504000904 | 59 | 346 | 5.2 | 13.0 | 0.00 | 0.45 | 0.00 | 76 | 1011.9 |
| 20260504000004 | 59 | 7 | 4.3 | 13.0 | 0.00 | 0.45 | 0.00 | 76 | 1012.0 |
| 20260503235404 | 60 | 3 | 4.3 | 12.2 | 0.00 | 0.45 | 0.00 | 74 | 1012.0 |
| 20260503234504 | 59 | 354 | 4.3 | 12.2 | 0.00 | 0.45 | 0.00 | 74 | 1012.0 |
| 20260503233625 | 59 | 4 | 4.3 | 12.2 | 0.00 | 0.45 | 0.00 | 75 | 1012.4 |
| 20260503232704 | 60 | 357 | 3.5 | 13.9 | 0.00 | 0.45 | 0.00 | 76 | 1012.1 |
| 20260503231825 | 59 | 7 | 3.5 | 13.9 | 0.00 | 0.45 | 0.00 | 77 | 1012.3 |
| 20260503230904 | 58 | 6 | 3.5 | 8.7 | 0.00 | 0.45 | 0.00 | 78 | 1012.2 |
| 20260503230004 | 58 | 353 | 3.5 | 11.3 | 0.00 | 0.45 | 0.00 | 79 | 1012.4 |
| 20260503225404 | 58 | 11 | 3.5 | 9.6 | 0.00 | 0.45 | 0.00 | 80 | 1012.2 |
| 20260503224504 | 57 | 4 | 3.5 | 7.8 | 0.00 | 0.45 | 0.00 | 81 | 1012.2 |
| 20260503223604 | 57 | 6 | 3.5 | 7.8 | 0.00 | 0.45 | 0.00 | 82 | 1012.2 |
| 20260503222725 | 56 | 8 | 2.6 | 7.8 | 0.00 | 0.45 | 0.00 | 83 | 1011.9 |
| 20260503221804 | 56 | 8 | 2.6 | 7.8 | 0.00 | 0.45 | 0.00 | 85 | 1012.2 |
| 20260503220904 | 55 | 11 | 2.6 | 9.6 | 0.00 | 0.45 | 0.00 | 85 | 1012.2 |
| 20260503220004 | 55 | 14 | 2.6 | 9.6 | 0.00 | 0.45 | 0.00 | 86 | 1012.3 |
| 20260503215404 | 55 | 14 | 2.6 | 8.7 | 0.00 | 0.45 | 0.00 | 87 | 1012.2 |
| 20260503214504 | 54 | 21 | 2.6 | 8.7 | 0.00 | 0.45 | 0.00 | 88 | 1012.2 |
| 20260503213604 | 54 | 6 | 2.6 | 8.7 | 0.00 | 0.45 | 0.00 | 89 | 1012.4 |
| 20260503212704 | 53 | 19 | 3.5 | 12.2 | 0.00 | 0.45 | 0.00 | 91 | 1012.0 |
| 20260503211825 | 53 | 25 | 2.6 | 8.7 | 0.00 | 0.45 | 0.00 | 91 | 1012.1 |
| 20260503210904 | 54 | 3 | 2.6 | 9.6 | 0.00 | 0.45 | 0.00 | 91 | 1012.2 |
| 20260503210005 | 54 | 19 | 2.6 | 7.8 | 0.00 | 0.46 | 0.00 | 91 | 1012.1 |
| 20260503205425 | 54 | 22 | 2.6 | 11.3 | 0.00 | 0.46 | 0.00 | 91 | 1012.0 |
| 20260503204504 | 54 | 35 | 2.6 | 8.7 | 0.00 | 0.46 | 0.00 | 91 | 1012.0 |
| 20260503203604 | 54 | 37 | 2.6 | 7.8 | 0.00 | 0.46 | 0.00 | 91 | 1012.1 |
| 20260503202704 | 54 | 29 | 2.6 | 12.2 | 0.00 | 0.46 | 0.00 | 92 | 1012.1 |
| 20260503201825 | 54 | 20 | 1.7 | 8.7 | 0.00 | 0.46 | 0.00 | 92 | 1011.8 |
| 20260503200904 | 54 | 26 | 1.7 | 7.8 | 0.00 | 0.46 | 0.00 | 92 | 1012.0 |
| 20260503200004 | 54 | 31 | 2.6 | 8.7 | 0.00 | 0.46 | 0.00 | 91 | 1011.9 |
| 20260503195425 | 54 | 44 | 2.6 | 8.7 | 0.00 | 0.46 | 0.00 | 91 | 1011.9 |
| 20260503194504 | 54 | 34 | 1.7 | 7.0 | 0.00 | 0.46 | 0.00 | 92 | 1012.2 |
| 20260503193604 | 54 | 46 | 1.7 | 7.0 | 0.00 | 0.46 | 0.00 | 92 | 1011.9 |
| 20260503192725 | 54 | 31 | 1.7 | 7.8 | 0.00 | 0.46 | 0.00 | 92 | 1011.8 |
| 20260503191804 | 53 | 31 | 1.7 | 6.1 | 0.00 | 0.46 | 0.00 | 93 | 1011.9 |
| 20260503190903 | 53 | 26 | 1.7 | 7.0 | 0.00 | 0.46 | 0.00 | 94 | 1012.1 |
| 20260503190004 | 53 | 36 | 1.7 | 8.7 | 0.00 | 0.46 | 0.00 | 93 | 1012.1 |
| 20260503185403 | 54 | 29 | 2.6 | 9.6 | 0.00 | 0.46 | 0.00 | 93 | 1012.4 |
| 20260503184504 | 54 | 32 | 2.6 | 8.7 | 0.00 | 0.46 | 0.00 | 92 | 1012.3 |
| 20260503183603 | 54 | 37 | 1.7 | 7.0 | 0.00 | 0.46 | 0.00 | 92 | 1012.4 |
| 20260503182704 | 54 | 49 | 2.6 | 8.7 | 0.00 | 0.46 | 0.00 | 92 | 1012.4 |
| 20260503181804 | 54 | 38 | 1.7 | 5.2 | 0.00 | 0.46 | 0.00 | 93 | 1012.4 |
| 20260503180903 | 54 | 52 | 1.7 | 7.0 | 0.00 | 0.46 | 0.00 | 92 | 1012.5 |
| 20260503180004 | 54 | 39 | 1.7 | 5.2 | 0.00 | 0.46 | 0.00 | 92 | 1012.7 |
| 20260503175403 | 54 | 39 | 1.7 | 7.0 | 0.00 | 0.46 | 0.00 | 92 | 1012.8 |
| 20260503174504 | 54 | 32 | 1.7 | 7.0 | 0.00 | 0.46 | 0.00 | 93 | 1012.7 |
| 20260503173603 | 54 | 46 | 1.7 | 7.8 | 0.00 | 0.46 | 0.00 | 93 | 1012.9 |
| 20260503172724 | 54 | 56 | 1.7 | 6.1 | 0.00 | 0.46 | 0.00 | 93 | 1012.7 |
| 20260503171803 | 54 | 62 | 1.7 | 9.6 | 0.00 | 0.46 | 0.00 | 93 | 1012.7 |
| 20260503170903 | 54 | 53 | 2.6 | 7.0 | 0.00 | 0.46 | 0.00 | 93 | 1012.9 |
| 20260503150903 | 55 | 23 | 2.6 | 7.0 | 0.00 | 0.46 | 0.00 | 91 | 1013.0 |
| 20260503130924 | 56 | 36 | 1.7 | 11.3 | 0.00 | 0.46 | 0.46 | 89 | 1013.5 |
| 20260503080904 | 55 | 36 | 1.7 | 5.2 | 0.00 | 0.46 | 0.46 | 95 | 1012.0 |
| 20260503072704 | 57 | 26 | 1.7 | 5.2 | 0.00 | 0.46 | 0.46 | 99 | 1012.0 |
| 20260503071825 | 57 | 42 | 0.9 | 2.6 | 0.00 | 0.46 | 0.46 | 99 | 1012.0 |
| 20260503070904 | 58 | 16 | 0.9 | 2.6 | 0.00 | 0.46 | 0.46 | 99 | 1012.0 |
| 20260503054504 | 58 | 112 | 0.9 | 2.6 | 0.05 | 0.46 | 0.46 | 99 | 1011.5 |
| 20260503053604 | 58 | 178 | 1.7 | 7.8 | 0.05 | 0.46 | 0.46 | 99 | 1011.4 |
| 20260503052704 | 60 | 186 | 0.9 | 6.1 | 0.05 | 0.46 | 0.46 | 99 | 1011.4 |
| 20260503051804 | 61 | 305 | 0.9 | 3.5 | 0.05 | 0.46 | 0.46 | 99 | 1011.1 |